Weather Roundup
Issued by NWS

Home | Current Version | Previous Version | Graphics & Text | Print | Product List | Glossary On
Versions: 1 2 3 4 5 6 7 8 9 10 11 12 13 14 15 16 17 18 19 20 21 22 23 24 25 26 27 28 29 30 31 32 33 34 35 36 37 38 39 40 41 42 43 44 45 46 47 48 49 50
744
NZUS93 KARX 250110
HRRWXR

CURRENT HOURLY OBSERVATIONS ACROSS
MUCH OF THE UPPER MISSISSIPPI VALLEY
NATIONAL WEATHER SERVICE LA CROSSE WI
800 PM CDT SUN SEP 24 2017


...SOUTHEAST MINNESOTA...


CITY           SKY/WX    TMP DP  RH WIND       PRES   REMARKS
ROCHESTER      CLEAR     75  63  66 S7        29.92S
ROCHESTER/MAYO FAIR      80  61  51 SE8       29.92R
WINONA         CLEAR     79  63  57 S5        29.91S
AUSTIN         CLEAR     79  61  53 S5        29.91S
ALBERT LEA     PTCLDY    82  63  51 S7        29.90S
DODGE CENTER   CLEAR     72  61  68 S3        29.92R
PRESTON        CLEAR     77  60  57 SE7       29.94S
OWATONNA       PTCLDY    79  63  57 S5        29.90R
FARIBAULT      MOCLDY    77  64  65 W12G20    29.91R
$$

...ELSEWHERE IN MINNESOTA...


CITY           SKY/WX    TMP DP  RH WIND       PRES   REMARKS
MINNEAPOLIS    MOCLDY    77  66  68 W10       29.89R
INTNL FALLS    CLOUDY    66  64  93 W15       29.81R
DULUTH         TSTM      68  65  90 W17       29.92R
RED WING       CLOUDY    82  61  47 SE5       29.86S
REDWOOD FALLS  MOCLDY    66  60  81 W10       29.92R
MANKATO        MOCLDY    71  64  78 W3        29.89F
WORTHINGTON    MOCLDY    65  61  87 NW6       29.94S
FAIRMONT       PTCLDY    70  66  87 CALM      29.91F
$$

...SOUTHWEST WISCONSIN...


CITY           SKY/WX    TMP DP  RH WIND       PRES   REMARKS
LA CROSSE      CLEAR     83  64  52 S10       29.92R
PRAIRIE DU CHI CLEAR     79  61  54 SE5       29.94R
BOSCOBEL       CLEAR     80  63  55 CALM      29.95S
LONE ROCK      CLEAR     71  63  75 CALM      29.97R
PLATTEVILLE    CLEAR     77  63  61 SE7       29.99R
FORT MC COY    CLEAR     78  62  57 S6        29.95S
CAMP DOUGLAS   CLEAR     76  61  59 S5        29.96S
MAUSTON-NEW LI CLEAR     72  63  74 S3        29.96R
VIROQUA        FAIR      75  64  67 SE6       29.98R
WIS DELLS      CLEAR     73  58  59 S3        29.98R
$$

...ELSEWHERE IN WISCONSIN...


CITY           SKY/WX    TMP DP  RH WIND       PRES   REMARKS
MILWAUKEE      CLEAR     78  60  53 S5        30.02R
MADISON        CLEAR     76  61  59 S5        29.98S
GREEN BAY      CLEAR     76  66  71 S8        29.99S
EAU CLAIRE     CLEAR     80  61  52 S12       29.90R
BLACK RVR FLS  FAIR      74  58  57 SE5       29.93S
MEDFORD        CLEAR     70  60  70 S5        29.96F
WAUSAU         CLEAR     76  61  59 S6        29.96R
WIS RAPIDS     CLEAR     76  62  62 S3        29.98R
MARSHFIELD     CLEAR     74  60  61 S6        29.97S
RICE LAKE      CLEAR     76  63  63 SE7       29.91S
$$

...NORTHEAST IOWA...


CITY           SKY/WX    TMP DP  RH WIND       PRES   REMARKS
WATERLOO       CLEAR     78  61  55 S6        29.91S
DUBUQUE        CLEAR     76  63  64 SE5       29.98S
DECORAH        CLEAR     77  64  65 SE6       29.94R
MASON CITY     CLEAR     74  61  63 S8        29.92R
CHARLES CITY   CLEAR     79  61  53 S7        29.93R
OELWEIN        CLEAR     75  64  69 SE7       29.95R
$$

...ELSEWHERE IN IOWA...


CITY           SKY/WX    TMP DP  RH WIND       PRES   REMARKS
DES MOINES     PTCLDY    81  62  52 SE7       29.90S
IOWA CITY      CLEAR     78  65  63 SE3       29.96R
FORT DODGE     CLOUDY    76  63  64 NW5       29.92R
MARSHALLTOWN   CLEAR     79  63  57 S7        29.92R
CEDAR RAPIDS   CLEAR     76  62  62 SE5       29.94S
$$

...NORTHERN ILLINOIS...


CITY           SKY/WX    TMP DP  RH WIND       PRES   REMARKS
CHICAGO-OHARE  PTCLDY    80  59  48 SE8       30.01R
CHICAGO-MIDWAY PTCLDY    82  61  48 E7        30.01S
MOLINE         CLEAR     74  66  76 SE6       29.96R
ROCKFORD       CLEAR     78  62  57 SE5       30.00S
PEORIA         CLEAR     78  63  59 E6        29.98R
$$

NOTE: "FAIR" INDICATES FEW OR NO CLOUDS BELOW 12,000 FEET WITH NO
SIGNIFICANT WEATHER AND/OR OBSTRUCTIONS TO VISIBILITY. WIND
SPEEDS ARE IN MILES-PER-HOUR.




USA.gov is the U.S. government's official web portal to all federal, state and local government web resources and services.